Location: Dampvalley
(47.9094°N, 6.1967°E)
Time: 14:17:35
(UTC+00:00)

S3M - Pass Details

Date: 05 March 2021
Orbit: 950 x 1003 km, 83.0° (Epoch: 17 April)

Event Time Altitude Azimuth Distance (km) Brightness Sun altitude
Exits shadow 03:21:36 30° 165° (SSE) 1,633 5.0 -28.2°
Maximum altitude 03:24:39 65° 94° (E) 1,050 4.2 -27.7°
Drops below altitude 10° 03:30:46 10° 14° (NNE) 2,711 6.7 -26.8°
Sets 03:33:18 0° 12° (NNE) 3,669 7.5 -26.4°
